Meteo pe oră la Dziedzice

Astăzi, 29 Septembrie, Marţi

Timp Temperatura Precipitaţii Vânt Presiune Umiditate
00:00 +10°C° 0.4 mm 2 m/s 742 mmHg 96%
01:00 +10°C° 0 mm 2 m/s 742 mmHg 98%
02:00 +10°C° 1.5 mm 2 m/s 742 mmHg 98%
03:00 +10°C° 1.5 mm 2 m/s 742 mmHg 98%
04:00 +10°C° 1.5 mm 2 m/s 742 mmHg 97%
05:00 +10°C° 1.1 mm 2 m/s 742 mmHg 97%
06:00 +10°C° 1.1 mm 2 m/s 742 mmHg 96%
07:00 +10°C° 0 mm 3 m/s 742 mmHg 95%
08:00 +12°C° 0.1 mm 2 m/s 742 mmHg 94%
09:00 +12°C° 0.1 mm 2 m/s 743 mmHg 94%
10:00 +12°C° 0.1 mm 2 m/s 743 mmHg 93%
11:00 +13°C° 0 mm 2 m/s 743 mmHg 92%
12:00 +13°C° 0 mm 2 m/s 743 mmHg 92%
13:00 +12°C° 0 mm 3 m/s 744 mmHg 90%
14:00 +12°C° 0.1 mm 3 m/s 744 mmHg 91%
15:00 +12°C° 0.1 mm 3 m/s 743 mmHg 92%
16:00 +13°C° 0.1 mm 2 m/s 743 mmHg 93%
17:00 +12°C° 0.1 mm 3 m/s 744 mmHg 93%
18:00 +12°C° 0.1 mm 3 m/s 744 mmHg 93%
19:00 +12°C° 0.1 mm 3 m/s 744 mmHg 94%
20:00 +12°C° 0.1 mm 3 m/s 744 mmHg 94%
21:00 +12°C° 0.1 mm 3 m/s 744 mmHg 94%
22:00 +11°C° 0.1 mm 3 m/s 744 mmHg 94%
23:00 +11°C° 0.1 mm 3 m/s 744 mmHg 93%

Mâine, 30 Septembrie, Miercuri

Timp Temperatura Precipitaţii Vânt Presiune Umiditate
00:00 +12°C° 0.1 mm 4 m/s 744 mmHg 93%
01:00 +12°C° 0.1 mm 4 m/s 744 mmHg 93%
02:00 +11°C° 0.2 mm 4 m/s 744 mmHg 93%
03:00 +11°C° 0.2 mm 4 m/s 744 mmHg 93%
04:00 +11°C° 0.2 mm 4 m/s 743 mmHg 94%
05:00 +11°C° 0 mm 4 m/s 744 mmHg 94%
06:00 +11°C° 0 mm 4 m/s 744 mmHg 94%
07:00 +11°C° 0 mm 4 m/s 744 mmHg 94%
08:00 +12°C° 0 mm 4 m/s 744 mmHg 91%
09:00 +12°C° 0 mm 5 m/s 744 mmHg 89%
10:00 +13°C° 0 mm 5 m/s 744 mmHg 87%
11:00 +13°C° 0 mm 5 m/s 743 mmHg 85%
12:00 +14°C° 0 mm 5 m/s 743 mmHg 84%
13:00 +14°C° 0 mm 5 m/s 743 mmHg 82%
14:00 +14°C° 0.1 mm 5 m/s 742 mmHg 82%
15:00 +15°C° 0.1 mm 5 m/s 742 mmHg 81%
16:00 +15°C° 0.1 mm 5 m/s 742 mmHg 81%
17:00 +14°C° 0 mm 4 m/s 742 mmHg 81%
18:00 +14°C° 0 mm 4 m/s 742 mmHg 82%
19:00 +14°C° 0 mm 4 m/s 742 mmHg 82%
20:00 +13°C° 0 mm 4 m/s 742 mmHg 83%
21:00 +13°C° 0 mm 4 m/s 741 mmHg 83%
22:00 +13°C° 0 mm 4 m/s 741 mmHg 83%
23:00 +13°C° 0.1 mm 4 m/s 741 mmHg 85%

Poimâine, 1 Octombrie, Joi

Timp Temperatura Precipitaţii Vânt Presiune Umiditate
00:00 +12°C° 0.1 mm 4 m/s 741 mmHg 86%
01:00 +12°C° 0.1 mm 4 m/s 740 mmHg 87%
02:00 +12°C° 0.4 mm 4 m/s 740 mmHg 89%
03:00 +11°C° 0.4 mm 4 m/s 740 mmHg 90%
04:00 +11°C° 0.4 mm 4 m/s 739 mmHg 92%
05:00 +11°C° 0.5 mm 4 m/s 739 mmHg 93%
06:00 +11°C° 0.5 mm 4 m/s 739 mmHg 94%
07:00 +11°C° 0.5 mm 4 m/s 739 mmHg 94%
08:00 +11°C° 0.4 mm 4 m/s 738 mmHg 95%
09:00 +11°C° 0.4 mm 4 m/s 738 mmHg 95%
10:00 +11°C° 0.4 mm 4 m/s 738 mmHg 95%
11:00 +11°C° 0.1 mm 3 m/s 738 mmHg 94%
12:00 +12°C° 0.1 mm 3 m/s 738 mmHg 93%
13:00 +12°C° 0.1 mm 3 m/s 737 mmHg 93%
14:00 +12°C° 0.1 mm 3 m/s 737 mmHg 93%
15:00 +13°C° 0.1 mm 2 m/s 737 mmHg 94%
16:00 +13°C° 0.1 mm 2 m/s 737 mmHg 94%
17:00 +13°C° 0.2 mm 2 m/s 737 mmHg 94%
18:00 +12°C° 0.2 mm 1 m/s 737 mmHg 95%
19:00 +12°C° 0.2 mm 1 m/s 737 mmHg 95%
20:00 +12°C° 0 mm 1 m/s 737 mmHg 95%
21:00 +12°C° 0 mm 1 m/s 737 mmHg 95%
22:00 +12°C° 0 mm 1 m/s 737 mmHg 94%
23:00 +11°C° 0 mm 0 m/s 737 mmHg 94%

2 Octombrie, Vineri

Timp Temperatura Precipitaţii Vânt Presiune Umiditate
00:00 +11°C° 0 mm 0 m/s 737 mmHg 94%
01:00 +11°C° 0 mm 0 m/s 737 mmHg 93%
02:00 +11°C° 0 mm 0 m/s 737 mmHg 93%
03:00 +11°C° 0 mm 0 m/s 737 mmHg 93%
04:00 +11°C° 0 mm 0 m/s 738 mmHg 93%
05:00 +12°C° 0 mm 1 m/s 738 mmHg 93%
06:00 +12°C° 0 mm 1 m/s 738 mmHg 93%
07:00 +12°C° 0 mm 1 m/s 738 mmHg 93%
08:00 +13°C° 0 mm 2 m/s 738 mmHg 88%
09:00 +14°C° 0 mm 2 m/s 738 mmHg 84%
10:00 +16°C° 0 mm 2 m/s 738 mmHg 79%
11:00 +16°C° 0 mm 3 m/s 738 mmHg 75%
12:00 +17°C° 0 mm 3 m/s 738 mmHg 71%
13:00 +18°C° 0 mm 3 m/s 738 mmHg 68%
14:00 +18°C° 0 mm 3 m/s 738 mmHg 69%
15:00 +18°C° 0 mm 3 m/s 737 mmHg 69%
16:00 +17°C° 0 mm 3 m/s 737 mmHg 70%
17:00 +16°C° 0 mm 3 m/s 737 mmHg 74%
18:00 +14°C° 0 mm 3 m/s 737 mmHg 78%
19:00 +13°C° 0 mm 3 m/s 737 mmHg 82%
20:00 +14°C° 0 mm 4 m/s 737 mmHg 80%
21:00 +14°C° 0 mm 5 m/s 737 mmHg 78%
22:00 +15°C° 0 mm 5 m/s 736 mmHg 76%
23:00 +14°C° 0 mm 5 m/s 736 mmHg 77%

3 Octombrie, Sâmbătă

Timp Temperatura Precipitaţii Vânt Presiune Umiditate
00:00 +14°C° 0 mm 5 m/s 736 mmHg 78%
01:00 +14°C° 0 mm 5 m/s 735 mmHg 79%
02:00 +14°C° 0 mm 5 m/s 735 mmHg 79%
03:00 +14°C° 0 mm 5 m/s 735 mmHg 79%
04:00 +14°C° 0 mm 5 m/s 734 mmHg 79%
05:00 +14°C° 0 mm 5 m/s 734 mmHg 79%
06:00 +14°C° 0 mm 5 m/s 734 mmHg 79%
07:00 +14°C° 0 mm 5 m/s 734 mmHg 79%
08:00 +16°C° 0 mm 6 m/s 734 mmHg 72%
09:00 +18°C° 0 mm 7 m/s 734 mmHg 66%
10:00 +21°C° 0 mm 8 m/s 733 mmHg 59%
11:00 +22°C° 0 mm 8 m/s 733 mmHg 58%
12:00 +23°C° 0 mm 8 m/s 733 mmHg 57%
13:00 +23°C° 0 mm 8 m/s 733 mmHg 56%
14:00 +23°C° 0 mm 8 m/s 733 mmHg 58%
15:00 +23°C° 0 mm 7 m/s 733 mmHg 59%
16:00 +23°C° 0 mm 7 m/s 732 mmHg 60%
17:00 +22°C° 0 mm 6 m/s 732 mmHg 62%
18:00 +21°C° 0 mm 6 m/s 732 mmHg 64%
19:00 +20°C° 0 mm 6 m/s 732 mmHg 66%
20:00 +20°C° 0 mm 6 m/s 732 mmHg 64%
21:00 +20°C° 0 mm 6 m/s 731 mmHg 63%
22:00 +21°C° 0 mm 7 m/s 731 mmHg 62%
23:00 +21°C° 0 mm 7 m/s 731 mmHg 60%

4 Octombrie, Duminică

Timp Temperatura Precipitaţii Vânt Presiune Umiditate
00:00 +21°C° 0 mm 8 m/s 731 mmHg 58%
01:00 +21°C° 0 mm 8 m/s 730 mmHg 57%
02:00 +21°C° 0 mm 8 m/s 730 mmHg 60%
03:00 +20°C° 0 mm 7 m/s 730 mmHg 63%
04:00 +20°C° 0 mm 7 m/s 730 mmHg 66%
05:00 +17°C° 0 mm 6 m/s 731 mmHg 69%
06:00 +16°C° 0 mm 6 m/s 732 mmHg 71%
07:00 +15°C° 0 mm 5 m/s 733 mmHg 74%
08:00 +16°C° 0 mm 5 m/s 734 mmHg 69%
09:00 +17°C° 0 mm 5 m/s 734 mmHg 63%
10:00 +19°C° 0 mm 6 m/s 735 mmHg 58%
11:00 +19°C° 0 mm 5 m/s 736 mmHg 57%
12:00 +20°C° 0 mm 5 m/s 736 mmHg 55%
13:00 +20°C° 0 mm 4 m/s 736 mmHg 53%
14:00 +20°C° 0 mm 4 m/s 736 mmHg 55%
15:00 +20°C° 0 mm 3 m/s 736 mmHg 57%
16:00 +20°C° 0 mm 3 m/s 737 mmHg 59%
17:00 +19°C° 0 mm 3 m/s 737 mmHg 62%
18:00 +18°C° 0 mm 3 m/s 737 mmHg 65%
19:00 +17°C° 0 mm 4 m/s 737 mmHg 67%
20:00 +15°C° 0 mm 4 m/s 737 mmHg 68%
21:00 +15°C° 0 mm 4 m/s 737 mmHg 68%
22:00 +15°C° 0 mm 5 m/s 737 mmHg 68%
23:00 +14°C° 0 mm 5 m/s 736 mmHg 69%
Arată mai mult

We Need Your Consent

Meteoprog and our Service Providers may store and access personal data such as cookies, device identifiers or other similar technologies on your device and process such data to personalise content and ads, as well as provide social media features and to analyse the traffic.

  • Store and/or access information on your device

    Cookies, device identifiers or other information can be stored or accessed on your device for the purposes indicated above.

  • Personalised ads and content, ad and content measurement, audience insights, and products development

    Ads and content can be personalised based on a profile. More data can be added to better personalise ads and content. Ad and content performance can be measured. Insights about the audience who saw the ads and content can be derived. Such data can be used to develop or improve user’s experience, systems and software.

By clicking ‘I Agree’ you will allow the use of indicated cookies, device identifiers, web beacons or other similar technologies. Your settings can be changed in the browser on your device.

For certain purposes, legitimate interests may be relied on, rather than consent. You can read more about this in our Privacy and Cookie Policy.